Skip Page Navigation
NASA JPL Caltech
NASA Logo - Jet Propulsion Laboratory + View the NASA Portal
+ Center for Near-Earth Object Studies
JPL Home Earth Solar System Stars & Galaxies Technology
JPL Solar System Dynamics
BODIES ORBITS EPHEMERIDES TOOLS PHYSICAL DATA DISCOVERY FAQ SITE MAP
JPL Small-Body Database Browser
Search: [ help ]  
105907 (2000 SN200)
Classification: Main-belt Asteroid          SPK-ID: 2105907
Ephemeris | Orbit Diagram | Orbital Elements | Mission Design | Physical Parameters | Discovery Circumstances | Close-Approach Data ]

[ show orbit diagram ]
Orbital Elements at Epoch 2459000.5 (2020-May-31.0) TDB
Reference: JPL 15 (heliocentric ecliptic J2000)
 Element Value Uncertainty (1-sigma)   Units 
e .150909653619874 5.2133e-08  
a 3.04335385197615 2.3214e-08 au
q 2.58408237633172 1.56e-07 au
i 10.53385314823676 5.9212e-06 deg
node 53.89063091511616 2.7796e-05 deg
peri 7.913289331910717 3.2863e-05 deg
M 226.9198299632793 1.9329e-05 deg
tp 2459717.365944975830
(2022-May-17.86594498)
0.00010864 TDB
period 1939.220096578546
5.31
2.2188e-05
6.075e-08
d
yr
n .185641640489991 2.1241e-09 deg/d
Q 3.50262532762058 2.6718e-08 au
  Orbit Determination Parameters
   # obs. used (total)      377  
   data-arc span      8596 days (23.53 yr)  
   first obs. used      1995-11-14  
   last obs. used      2019-05-28  
   planetary ephem.      DE431  
   SB-pert. ephem.      SB431-N16  
   condition code      0  
   norm. resid. RMS      .48713  
   source      ORB  
   producer      Otto Matic  
   solution date      2020-Feb-24 02:30:56  

Additional Information
 Earth MOID = 1.59729 au 
 Jupiter MOID = 1.85803 au 
 T_jup = 3.196 
[ hide covariance matrix ]
Orbital Elements at Epoch 2457056.5 (2015-Feb-03.0) TDB
Reference: JPL 15 (heliocentric ecliptic J2000)
 Element Value Uncertainty (1-sigma)   Units 
e .155071803442161 5.2405e-08  
q 2.56471126620979 1.5731e-07 au
tp 2457780.615954133363
(2017-Jan-27.11595413)
9.4358e-05 TDB
node 53.97165184028525 2.7708e-05 deg
peri 7.655429260417203 3.2479e-05 deg
i 10.56338601323835 5.9355e-06 deg
  Orbit Determination Parameters
   # obs. used (total)      377  
   data-arc span      8596 days (23.53 yr)  
   first obs. used      1995-11-14  
   last obs. used      2019-05-28  
   planetary ephem.      DE431  
   SB-pert. ephem.      SB431-N16  
   condition code      0  
   norm. resid. RMS      .48713  
   source      ORB  
   producer      Otto Matic  
   solution date      2020-Feb-24 02:30:56  

Additional Information
 Jupiter MOID = 1.85803 au 
 T_jup = 3.196 
Orbit Covariance (6×6)
  e q tp node peri i
e 2.746272787499237E-15 -8.18202217248539E-15 -1.671498430080479E-13 2.178502285825373E-15 -8.823124658232034E-14 1.404203714237762E-15
q -8.18202217248539E-15 2.474527715864619E-14 1.221848482101014E-12 -8.483949271332739E-15 3.606997741091058E-13 -4.94571290624788E-15
tp -1.671498430080479E-13 1.221848482101014E-12 8.903361875889422E-9 -1.540792152883167E-11 1.617461565331325E-9 -3.81704481015152E-12
node 2.178502285825373E-15 -8.483949271332739E-15 -1.540792152883167E-11 7.67723961074449E-10 -7.569461365944274E-10 -7.568160556706767E-12
peri -8.823124658232034E-14 3.606997741091058E-13 1.617461565331325E-9 -7.569461365944274E-10 1.054893744370561E-9 6.719373401846296E-12
i 1.404203714237762E-15 -4.94571290624788E-15 -3.81704481015152E-12 -7.568160556706767E-12 6.719373401846296E-12 3.523060487442243E-11

Ephemeris | Orbit Diagram | Orbital Elements | Mission Design | Physical Parameters | Discovery Circumstances | Close-Approach Data ]

Physical Parameter Table
Parameter Symbol Value Units Sigma Reference Notes
absolute magnitude H 15.1   n/a MPO436502  

105907 (2000 SN200)          Discovered 2000-Sep-24 by LINEAR at Socorro
Reference: 20051019/Numbers.arcLast Updated: 2005-10-26

[ show close-approach data ]
Alternate Designations
 2000 SN200 = 1995 VU7 
Ephemeris | Orbit Diagram | Orbital Elements | Mission Design | Physical Parameters | Discovery Circumstances | Close-Approach Data ]
ABOUT SSD CREDITS/AWARDS PRIVACY/COPYRIGHT GLOSSARY LINKS
FirstGov 2020-Aug-11 11:07 UT
(server date/time)  
NASA Home Page
Site Manager:   Ryan S. Park
Webmaster  Alan B. Chamberlin